Content
SEND FEEDBACK

Daily
Averages
Monthly
Summary
United States of America

YIGO, GUAM


Home > North America > United States > Guam
Elevation: 530 feet     Latitude: 13 32N     Longitude: 144 53E

WEATHER
 
SELECT A DAY
Number of Records: 213,030;   Date Range: 1/1/95 - 9/28/14
 
SHARE

PRINT THIS DATA

[ ← Previous Day ]
WEATHER ALMANAC - AUGUST 25, 2014
[ Next Day → ]
[ °C ]   °F
Weather ElementAverageHighLow
Temperature80.3 °F86 °F (12:50 pm)75 °F (11:54 am)
Dewpoint76.4 °F78.8 °F (12:47 pm)72 °F (10:54 am)
Humidity88.2 %100 % (6:39 am)70 % (12:50 pm)
Barometer29.83 in29.90 in (12:08 am)29.76 in (2:54 am)
Wind Speed6.5 mph12.7 mph (8:54 am)
Wind Gust18.4 mph (2:54 pm)
Weather ElementAverage
Visibility9.1 mi
Wind DirectionENE (67.9 °)

Weather ElementTotal
Precipitation1.62 in
Cooling Degree Days15.5 (Base 65)
Growing Degree Days30.5 (Base 50)
Averaged from 33 records on August 25, 2014
WEATHER CONDITIONS BREAKOUT
WIND DIRECTION BREAKOUT
WEATHER BY HOUR - AUGUST 25, 2014
[ °C ]   °F
Local TimeTemperatureDewpointHumidityBarometerVisibilityWind DirectionWind SpeedGust SpeedPrecipitationEventsConditions
12:54 AM81.0 °F77.0 °F88 %29.86 in5.0 miNorth (360°)3.5 mph0.02 inRainHeavy Rain
1:54 AM80.1 °F75.9 °F87 %29.85 in10.0 miNorth0.01 inPartly Cloudy
2:54 AM81.0 °F78.1 °F91 %29.83 in10.0 miNorthMostly Cloudy
3:54 AM79.0 °F75.9 °F90 %29.83 in10.0 miNorth0.14 inOvercast
4:54 AM79.0 °F77.0 °F94 %29.81 in10.0 miCalmClear
5:26 AM78.8 °F77.0 °F94 %29.84 in10.0 miCalmScattered Clouds
5:54 AM79.0 °F77.0 °F94 %29.83 in10.0 miCalmClear
6:39 AM78.8 °F78.8 °F100 %29.86 in10.0 miCalmThunderstormThunderstorm
6:54 AM79.0 °F77.0 °F94 %29.86 in10.0 miCalmThunderstormThunderstorm
7:18 AM78.8 °F75.2 °F89 %29.89 in10.0 miNNE (20°)4.6 mph0.00 inRain-ThunderstormLight Thunderstorms and Rain
7:30 AM75.2 °F73.4 °F94 %29.90 in2.5 miNNE (20°)12.7 mph18.4 mph0.08 inRain-ThunderstormHeavy Thunderstorms and Rain
7:33 AM75.2 °F73.4 °F94 %29.89 in1.5 miNNE (20°)12.7 mph18.4 mph0.18 inRain-ThunderstormHeavy Thunderstorms and Rain
7:42 AM75.2 °F73.4 °F94 %29.90 in3.0 miNNE (20°)12.7 mph18.4 mph0.37 inRain-ThunderstormHeavy Thunderstorms and Rain
7:48 AM75.2 °F73.4 °F94 %29.90 in9.0 miNNE (20°)12.7 mph18.4 mph0.38 inRainLight Rain
7:49 AM75.0 °F73.9 °F96 %29.88 in10.0 miNNE (20°)12.7 mph18.4 mph0.38 inRainLight Rain
8:54 AM77.0 °F72.0 °F84 %29.84 in10.0 miNNE (30°)11.5 mph0.00 inMostly Cloudy
9:54 AM82.0 °F75.0 °F79 %29.86 in10.0 miCalmScattered Clouds
10:54 AM84.0 °F77.0 °F79 %29.85 in10.0 miEast (100°)6.9 mphScattered Clouds
11:54 AM84.0 °F78.1 °F82 %29.83 in10.0 miNorth (350°)9.2 mph0.00 inScattered Clouds
12:54 PM82.9 °F78.1 °F85 %29.79 in10.0 miNorth (350°)3.5 mph0.00 inRainLight Rain
1:47 PM84.2 °F78.8 °F84 %29.80 in10.0 miCalm0.00 inMostly Cloudy
1:54 PM84.9 °F78.1 °F80 %29.77 in10.0 miESE (110°)4.6 mph0.00 inMostly Cloudy
2:24 PM86.0 °F75.2 °F70 %29.80 in10.0 miENE (70°)10.4 mphMostly Cloudy
2:54 PM84.9 °F77.0 °F77 %29.78 in10.0 miEast (80°)8.1 mphMostly Cloudy
3:54 PM82.0 °F78.1 °F88 %29.80 in10.0 miNE (40°)10.4 mph0.01 inRainLight Rain
4:54 PM81.0 °F78.1 °F91 %29.76 in10.0 miSE (130°)3.5 mph0.03 inRainLight Rain
5:54 PM81.0 °F77.0 °F88 %29.78 in10.0 miEast (90°)9.2 mph0.01 inPartly Cloudy
6:54 PM80.1 °F77.0 °F90 %29.78 in10.0 miNNE (30°)4.6 mphPartly Cloudy
7:54 PM81.0 °F77.0 °F88 %29.83 in10.0 miEast (80°)9.2 mphPartly Cloudy
8:54 PM82.0 °F77.0 °F85 %29.83 in10.0 miEast (80°)9.2 mphPartly Cloudy
9:54 PM81.0 °F77.0 °F88 %29.83 in10.0 miNE (50°)4.6 mphPartly Cloudy
10:54 PM81.0 °F77.0 °F88 %29.85 in10.0 miEast (80°)11.5 mph0.01 inPartly Cloudy
11:54 PM80.2 °F77.0 °F90 %29.83 in10.0 miEast (90°)5.8 mphPartly Cloudy
Hourly data recorded from PGUM, located miles away from Yigo, Guam







STORIES FROM OUR PARTNERS